CAPE
1567 1622 1320 781 10 57 51 126 595 75 96 171 36 225 416 701 398 194 370 445 665 705 1180 1411 1458 1593 1642 1738 1582 1526 1537 1625 1691 1663 1439 1229 1563 1857 2231 2007 1840 2003 1981 1987 2025 1950 1685 1854 1804
1239 801 643 47 12 15 69 163 306 249 327 415 349 481 501 799 806 283 412 588 602 615 1078 1408 1397 1181 1285 1592 1563 1634 1671 1640 1501 1424 1512 1497 2021 1848 1660 1651 1854 1793 1803 1802 1842 1582 1601 1739 1750
612 321 16 0 0 16 52 156 166 376 338 333 542 481 460 291 444 258 483 655 531 750 992 1378 1311 1045 1137 1310 1420 1471 1491 1423 1683 1659 1262 1599 1728 1450 1641 1510 1762 1870 1715 1745 1807 1753 1420 1411 1554
79 1 0 0 0 6 48 205 429 485 599 502 413 334 350 364 139 370 531 591 544 986 1037 1292 1085 824 1016 1179 1247 1267 1421 1519 1699 1716 1681 1665 1325 1116 1533 1707 1441 1610 1600 1759 1746 1709 1645 1461 1451
29 9 0 87 152 169 77 190 640 227 468 521 446 285 258 597 471 565 627 548 675 1189 1255 1105 918 812 834 1113 1896 2097 1403 899 1225 1679 2120 1553 1733 1099 990 1183 1321 1275 1622 1460 1411 1228 1156 1101 1166
13 133 146 84 286 415 568 623 125 511 542 432 325 252 439 695 430 522 683 929 957 1142 1162 989 769 750 881 1043 1958 1965 1820 897 828 1441 1947 1676 1497 1712 752 1043 931 892 1035 1267 1169 1190 1195 1125 1073
0 40 201 225 297 391 504 540 594 868 572 445 352 302 364 539 378 390 598 1020 1136 1090 1042 988 742 549 730 1052 1476 2020 1848 1929 1171 1049 1532 1903 1949 1620 1266 435 597 871 865 1082 1075 974 916 903 1014
0 153 300 268 260 329 494 562 786 715 575 463 398 324 255 424 425 322 484 750 1003 1114 727 1095 488 824 583 719 1120 1920 1487 1966 2060 1029 1409 2076 1647 1729 1715 1088 222 378 820 824 780 961 840 735 675
204 120 179 142 174 313 638 637 805 670 549 507 454 462 617 479 417 322 269 381 645 1116 865 627 522 965 1601 845 740 1799 1809 1235 1927 1809 1263 1397 1085 556 23 818 996 989 794 736 821 417 361 395 532
0 41 158 182 241 209 540 683 749 639 597 517 520 590 668 516 415 248 141 158 216 476 1229 493 467 687 1138 1276 496 1758 1485 1521 1672 1756 1326 1150 1092 489 209 326 963 752 791 875 943 812 700 411 210
2 1 26 69 209 355 519 631 693 578 468 546 479 602 717 638 587 191 35 8 15 83 748 1167 474 678 725 968 1084 577 1418 1550 1302 1723 1504 953 471 181 32 0 83 450 652 729 544 303 405 523 436
0 0 17 76 209 471 411 587 642 650 597 597 667 749 784 667 644 406 121 52 100 170 305 586 936 513 467 724 1083 802 1101 1345 1183 1492 1515 978 282 195 146 15 17 254 339 568 240 286 210 256 223
0 0 0 5 257 402 511 491 645 629 687 702 742 842 815 818 717 592 327 176 257 347 381 955 1012 830 752 833 1053 950 927 873 1283 1213 1756 673 190 122 105 161 143 130 131 130 200 412 204 206 219
0 0 0 80 225 461 507 597 712 771 761 651 582 658 911 910 805 638 538 494 557 459 632 854 1195 1082 920 855 1189 956 839 963 1200 826 1484 1165 292 104 34 177 125 55 174 172 52 105 298 156 103
0 2 70 170 258 433 622 503 446 695 763 744 670 661 897 971 928 787 742 796 818 708 937 893 1138 1174 1093 999 1119 926 923 1255 1047 901 1066 1197 813 341 196 366 245 158 82 16 99 129 155 305 236
0 0 84 37 259 383 474 140 371 702 730 739 800 765 786 945 963 945 922 935 890 876 828 950 914 1041 1125 929 1004 784 982 860 955 826 972 923 655 469 608 602 435 451 316 134 177 198 239 226 355
0 7 15 6 242 348 284 178 196 593 777 850 822 787 878 931 1047 1067 961 943 899 750 715 807 877 879 1016 1058 925 788 755 827 670 592 773 859 530 593 722 482 410 493 242 237 334 325 318 129 185
0 0 0 0 0 115 279 37 192 440 673 809 954 941 909 912 916 1115 1049 967 976 910 781 730 791 894 921 843 863 679 643 517 323 117 383 394 308 397 710 716 623 533 321 250 438 286 338 168 120
0 0 0 0 0 0 0 0 4 274 536 717 933 881 986 1019 1107 1128 1056 929 936 1002 923 783 683 621 679 564 433 292 209 353 331 204 177 134 161 212 463 681 465 473 327 158 120 307 302 169 331
0 0 0 0 0 0 0 0 14 56 328 669 962 964 959 1053 1118 1075 1072 934 863 988 921 847 572 563 505 555 420 176 273 357 220 193 186 125 154 172 265 480 557 118 45 160 442 402 456 326 201
0 0 0 0 0 0 0 3 21 108 168 299 855 1134 1219 1215 1125 1054 994 1017 901 759 850 792 538 542 531 478 402 329 372 275 81 143 154 157 202 108 109 321 368 286 156 231 380 299 530 297 360
0 0 0 0 0 0 0 0 0 0 0 20 213 511 644 997 1059 1299 1177 882 963 940 553 565 590 662 575 484 366 164 205 196 152 197 94 63 51 50 60 229 283 258 456 86 116 314 640 563 392
0 0 0 0 0 0 0 0 0 0 0 0 17 142 237 403 627 646 781 799 647 448 477 441 404 464 469 504 413 345 212 390 288 188 148 193 10 0 0 33 232 221 583 227 149 146 685 630 370
0 0 0 0 0 0 0 0 0 0 0 0 0 67 207 288 406 532 650 533 395 219 451 510 323 329 319 365 428 406 297 198 192 37 71 42 3 0 0 2 157 236 629 478 410 286 491 433 121
0 0 0 0 0 0 0 0 0 0 0 0 0 2 18 207 308 420 403 381 451 395 294 399 461 506 323 272 324 354 290 316 168 28 24 3 0 3 21 73 133 150 225 355 368 340 612 290 144
0 0 0 0 0 0 0 0 0 0 0 0 0 0 0 3 149 370 441 442 612 682 740 698 724 728 520 383 378 454 466 132 147 76 48 78 164 8 13 43 58 128 374 874 848 830 304 162 176
0 0 0 0 0 0 0 0 0 0 0 0 0 0 0 0 7 164 362 502 535 472 504 609 805 901 714 557 533 391 249 146 91 48 79 82 10 29 76 258 118 288 619 471 562 670 603 571 394
0 0 0 0 0 0 0 0 0 0 0 0 0 0 0 0 0 164 448 452 530 711 728 814 860 843 744 699 614 433 231 183 162 172 178 119 100 183 372 451 112 114 562 556 587 506 450 295 367
0 0 0 0 0 0 0 0 0 0 0 0 0 0 1 3 3 90 425 569 807 801 944 1071 1132 1062 986 873 715 558 340 306 326 307 274 382 486 554 437 405 631 620 452 200 364 403 604 310 283
0 0 0 0 0 0 0 0 0 0 0 0 0 0 8 68 39 103 377 683 1150 1146 1165 1470 1446 1360 1355 1290 1064 844 834 855 751 655 645 777 760 743 881 779 591 428 505 365 310 357 192 176 138
CIN
-64 -36 -49 -99 -101 -55 -35 -21 -46 -50 -66 -77 -96 -79 -43 -63 -59 -46 -205 -152 -109 -86 -3 -0 -0 -0 -1 -0 -5 -5 -7 -9 -6 -8 -8 -10 -1 -0 -0 -0 -0 -0 -0 -0 -0 -0 -0 -0 -0
-110 -133 -136 -185 -43 -27 -18 -62 -32 -57 -64 -60 -64 -63 -62 -57 -109 -221 -174 -114 -94 -91 -20 -0 -1 -12 -10 -3 -0 -0 -0 -0 -4 -7 -1 -0 -0 -0 -0 -0 -0 -0 -0 -0 -0 -0 -0 -0 -0
-182 -220 -168 -16 -0 -29 -29 -59 -73 -82 -69 -45 -26 -67 -77 -131 -140 -194 -149 -100 -92 -58 -31 -0 -1 -16 -14 -8 -1 -0 -0 -1 -0 -0 -2 -0 -0 -1 -0 -0 -0 -0 -0 -0 -0 -0 -0 -0 -0
-278 -8 -3 -0 -0 -79 -57 -78 -75 -70 -50 -58 -56 -51 -106 -132 -193 -147 -123 -91 -74 -26 -20 -1 -11 -37 -23 -16 -5 -2 -0 -0 -0 -0 -2 -0 -0 -8 -0 -0 -0 -0 -0 -0 -0 -0 -0 -0 -0
-304 -50 -0 -66 -50 -73 -96 -98 -82 -83 -66 -50 -47 -76 -110 -83 -115 -96 -94 -88 -45 -1 -0 -3 -19 -37 -31 -13 -0 -0 -0 -29 -12 -0 -0 -0 -0 -7 -12 -1 -0 -0 -0 -0 -0 -0 -0 -0 -0
-100 -173 -38 -23 -28 -48 -47 -61 -112 -68 -63 -73 -79 -113 -81 -65 -94 -78 -58 -26 -7 -3 -0 -7 -24 -33 -25 -17 -0 -0 -0 -29 -26 -0 -0 -0 -0 -0 -18 -0 -1 -1 -0 -0 -0 -0 -0 -0 -0
-0 -111 -44 -37 -21 -27 -48 -86 -61 -46 -54 -60 -98 -99 -111 -55 -73 -64 -40 -5 -0 -1 -0 -4 -28 -45 -31 -11 -0 -0 -0 -0 -10 -20 -0 -0 -0 -0 -0 -17 -5 -1 -0 -0 -0 -0 -0 -1 -1
-7 -131 -51 -55 -27 -21 -49 -75 -66 -57 -59 -123 -119 -76 -127 -116 -84 -75 -28 -8 -0 -0 -12 -1 -49 -21 -38 -19 -2 -0 -0 -0 -0 -13 -11 -0 -1 -0 -0 -1 -21 -9 -0 -0 -1 -0 -0 -3 -8
-205 -69 -38 -34 -33 -20 -59 -44 -94 -101 -100 -113 -123 -107 -111 -135 -102 -99 -78 -34 -6 -0 -5 -16 -41 -13 -0 -19 -11 -0 -0 -3 -0 -0 -3 -0 -1 -2 -87 -3 -0 -0 -0 -0 -0 -8 -15 -16 -12
-0 -83 -47 -67 -48 -25 -40 -51 -70 -84 -93 -112 -162 -177 -163 -154 -117 -139 -150 -123 -99 -52 -0 -27 -43 -31 -8 -0 -28 -0 -0 -0 -0 -0 -0 -0 -0 -0 -0 -3 -0 -0 -0 -0 -0 -2 -0 -6 -28
-124 -12 -91 -67 -56 -47 -40 -51 -75 -78 -72 -86 -109 -215 -178 -154 -110 -179 -210 -209 -199 -138 -23 -0 -44 -29 -25 -19 -3 -17 -0 -0 -0 -0 -0 -0 -6 -16 -11 -0 -5 -0 -0 -0 -0 -3 -0 -0 -13
-0 -0 -110 -77 -70 -37 -34 -52 -58 -85 -65 -84 -155 -246 -226 -192 -141 -158 -203 -215 -178 -145 -105 -45 -9 -44 -39 -22 -15 -18 -0 -0 -0 -0 -0 -1 -19 -16 -17 -27 -41 -7 -0 -2 -10 -1 -7 -12 -35
-0 -0 -0 -24 -57 -55 -51 -48 -54 -75 -158 -153 -220 -253 -206 -167 -145 -140 -158 -162 -139 -110 -109 -25 -11 -30 -31 -18 -10 -18 -8 -3 -0 -1 -0 -14 -36 -34 -24 -19 -21 -24 -18 -11 -9 -6 -11 -12 -18
-0 -0 -0 -90 -65 -57 -45 -58 -73 -99 -234 -220 -231 -250 -209 -164 -157 -151 -150 -140 -102 -109 -88 -46 -14 -20 -19 -23 -5 -20 -21 -4 -0 -1 -0 -6 -37 -53 -76 -26 -35 -53 -28 -28 -47 -29 -9 -20 -27
-0 -5 -47 -70 -54 -59 -58 -41 -42 -126 -215 -210 -235 -267 -229 -184 -166 -178 -154 -115 -94 -97 -41 -43 -32 -20 -26 -15 -8 -4 -13 -0 -0 -9 -3 -4 -17 -29 -36 -20 -33 -33 -37 -78 -30 -23 -20 -9 -9
-0 -0 -4 -45 -59 -75 -44 -7 -43 -143 -165 -152 -251 -267 -271 -225 -185 -163 -137 -105 -86 -64 -86 -53 -47 -39 -20 -19 -11 -14 -6 -10 -15 -21 -8 -18 -31 -30 -23 -13 -15 -14 -14 -38 -19 -13 -10 -11 -7
-0 -3 -12 -19 -48 -54 -51 -17 -53 -155 -166 -160 -225 -272 -263 -246 -215 -171 -153 -139 -118 -134 -124 -100 -92 -86 -45 -7 -7 -16 -23 -10 -31 -40 -25 -28 -42 -31 -25 -32 -25 -18 -26 -25 -12 -11 -16 -19 -15
-0 -0 -0 -0 -0 -56 -33 -38 -46 -157 -177 -149 -203 -239 -259 -262 -223 -203 -178 -163 -122 -125 -124 -112 -109 -81 -77 -44 -16 -16 -16 -34 -58 -106 -64 -57 -63 -50 -29 -28 -22 -16 -13 -18 -6 -17 -17 -14 -16
-0 -0 -0 -0 -0 -0 -0 -0 -52 -135 -190 -183 -200 -227 -243 -216 -212 -200 -196 -182 -138 -142 -128 -136 -128 -149 -91 -106 -97 -86 -101 -66 -64 -92 -96 -88 -94 -62 -49 -34 -33 -29 -18 -31 -40 -9 -7 -17 -19
-0 -0 -0 -0 -0 -0 -0 -0 -65 -117 -128 -163 -188 -215 -226 -203 -203 -219 -187 -193 -188 -150 -136 -139 -174 -162 -166 -126 -155 -157 -98 -67 -67 -78 -65 -78 -75 -74 -72 -45 -32 -65 -53 -33 -13 -10 -5 -16 -18
-0 -0 -0 -0 -0 -0 -0 -20 -41 -112 -204 -236 -232 -230 -194 -186 -173 -216 -235 -198 -198 -208 -185 -175 -195 -180 -165 -151 -141 -117 -73 -66 -90 -77 -55 -45 -52 -49 -52 -42 -39 -43 -52 -27 -15 -5 -1 -11 -11
-0 -0 -0 -0 -0 -0 -0 -0 -0 -0 -0 -222 -207 -224 -202 -197 -213 -184 -199 -267 -242 -217 -266 -246 -206 -164 -175 -157 -136 -173 -113 -99 -115 -81 -63 -24 -57 -35 -54 -31 -34 -42 -22 -67 -45 -13 -0 -5 -1
-0 -0 -0 -0 -0 -0 -0 -0 -0 -0 -0 -0 -186 -211 -187 -215 -207 -224 -250 -249 -317 -334 -357 -337 -286 -238 -205 -170 -154 -137 -125 -89 -100 -73 -54 -15 -48 -3 -0 -72 -25 -22 -19 -54 -55 -52 -0 -4 -12
-0 -0 -0 -0 -0 -0 -0 -0 -0 -0 -0 -0 -0 -172 -151 -164 -210 -263 -281 -353 -370 -413 -380 -334 -323 -291 -272 -220 -168 -142 -128 -119 -95 -103 -61 -69 -38 -0 -0 -95 -28 -20 -17 -30 -31 -26 -7 -9 -26
-0 -0 -0 -0 -0 -0 -0 -0 -0 -0 -0 -0 -0 -250 -277 -202 -227 -259 -276 -325 -368 -394 -407 -363 -327 -269 -283 -255 -196 -160 -136 -93 -102 -139 -120 -95 -20 -22 -44 -38 -33 -35 -37 -23 -20 -13 -10 -28 -23
-0 -0 -0 -0 -0 -0 -0 -0 -0 -0 -0 -0 -0 -0 -0 -282 -241 -261 -284 -348 -367 -406 -394 -350 -312 -240 -251 -254 -209 -132 -100 -223 -116 -144 -113 -45 -22 -64 -83 -50 -79 -59 -26 -7 -11 -2 -22 -30 -44
-0 -0 -0 -0 -0 -0 -0 -0 -0 -0 -0 -0 -0 -0 -0 -0 -41 -315 -359 -369 -399 -456 -438 -367 -316 -246 -247 -232 -200 -207 -250 -261 -253 -227 -156 -99 -99 -57 -49 -36 -89 -47 -22 -30 -14 -0 -0 -0 -17
-0 -0 -0 -0 -0 -0 -0 -0 -0 -0 -0 -0 -0 -0 -0 -0 -19 -326 -363 -387 -425 -415 -425 -381 -337 -278 -261 -227 -198 -230 -312 -309 -238 -174 -129 -119 -86 -28 -18 -25 -106 -86 -23 -21 -4 -3 -1 -6 -16
-0 -0 -0 -0 -0 -0 -0 -0 -0 -0 -0 -0 -0 -0 -83 -201 -143 -348 -356 -399 -400 -414 -400 -348 -302 -260 -247 -224 -211 -232 -298 -270 -221 -162 -110 -72 -33 -17 -35 -46 -35 -40 -44 -54 -5 -0 -0 -7 -10
-0 -0 -0 -0 -0 -0 -0 -0 -0 -0 -0 -0 -0 -0 -219 -246 -308 -367 -362 -401 -335 -340 -343 -286 -253 -210 -178 -164 -173 -191 -150 -109 -107 -104 -78 -35 -27 -19 -18 -30 -57 -59 -40 -25 -3 -0 -6 -9 -13
Wind_Speed
22 21 18 16 11 7 14 21 16 21 21 19 26 19 19 19 18 17 22 29 30 30 29 28 25 25 26 27 26 27 26 27 27 27 26 26 25 23 22 21 19 21 20 18 13 15 17 19 22
22 21 16 14 14 21 20 17 21 18 20 22 21 19 17 16 16 18 26 30 30 29 29 27 24 24 25 25 26 26 26 25 26 25 25 25 24 23 22 21 21 23 24 23 22 22 20 18 20
21 15 15 16 22 25 22 19 22 24 20 20 18 16 15 14 15 22 26 30 29 28 27 25 23 23 25 25 25 26 25 25 25 24 24 25 24 23 22 22 23 25 25 23 23 23 23 21 20
18 16 14 18 27 23 22 21 21 18 12 17 18 19 17 13 19 23 28 30 29 27 25 25 23 24 25 25 25 26 26 25 25 24 23 23 24 23 22 22 23 23 24 23 22 23 22 22 22
15 15 20 25 11 20 20 20 19 17 16 19 15 18 18 11 18 27 28 28 27 27 25 25 23 25 25 25 26 25 24 24 22 22 22 23 23 22 21 22 22 22 23 22 22 22 22 22 22
16 15 23 18 6 15 20 19 18 18 19 19 18 19 19 19 23 27 27 25 26 25 25 24 25 25 24 24 25 25 24 23 22 21 20 23 22 22 21 21 21 22 22 21 22 20 20 22 22
16 20 22 9 8 17 19 18 19 19 19 19 19 19 18 21 22 24 24 23 24 24 24 24 24 24 23 23 24 23 24 22 22 19 21 22 21 21 21 21 21 21 21 22 21 21 21 22 22
17 19 19 17 20 20 18 17 17 19 19 21 18 18 18 19 22 23 22 22 22 22 23 23 23 24 23 23 23 23 22 22 21 21 22 21 21 21 21 20 20 20 20 20 20 20 20 20 19
17 17 17 18 19 19 17 18 18 18 19 19 16 17 15 20 21 22 22 22 22 22 23 23 23 23 22 22 22 22 22 22 21 22 22 21 19 19 19 21 20 19 19 18 18 18 17 16 17
15 15 15 13 15 18 17 17 18 18 18 18 18 18 19 19 20 22 22 23 22 22 23 23 23 22 21 21 20 20 21 21 21 22 21 20 19 18 19 21 21 19 18 17 15 15 16 16 15
12 12 13 13 13 15 15 16 16 17 17 15 16 19 21 21 21 22 22 22 23 22 21 21 22 22 21 20 19 18 19 19 20 20 21 19 18 17 18 19 20 18 16 16 15 14 14 15 16
14 12 11 15 11 13 13 15 16 13 18 17 16 19 21 22 21 22 22 21 21 22 21 21 22 22 21 19 18 18 17 17 17 19 19 19 17 17 17 19 21 18 16 15 14 14 14 14 13
13 14 17 15 13 8 11 13 14 14 17 17 17 18 19 20 22 23 23 21 19 20 20 20 21 20 21 19 17 17 17 16 15 15 16 17 17 17 17 18 19 18 15 14 13 15 15 14 12
12 13 18 13 10 9 9 12 14 15 15 15 15 16 16 17 20 20 20 20 20 18 20 20 21 19 17 19 17 14 14 16 14 12 16 16 16 16 18 17 17 16 14 13 14 16 15 16 13
14 13 12 11 11 12 9 8 8 12 13 13 13 14 15 15 16 18 17 17 16 17 18 21 21 19 16 17 18 15 13 13 13 11 11 16 15 16 16 18 17 14 12 12 14 15 17 15 14
15 13 10 13 11 13 9 8 8 10 11 11 12 14 14 15 17 15 12 11 13 13 16 18 21 20 18 17 16 14 13 13 8 11 13 5 4 14 15 18 18 15 13 13 16 15 15 14 13
14 11 10 13 9 10 8 11 7 9 10 11 12 13 15 14 16 14 10 4 7 19 15 17 19 20 18 15 14 13 14 16 16 14 10 12 16 14 3 5 5 8 9 16 14 12 14 12 11
11 12 12 12 15 7 8 16 10 8 11 12 13 13 14 14 14 12 9 8 8 12 15 18 16 18 17 14 14 13 12 16 12 10 13 14 9 16 4 11 7 7 12 16 11 14 12 8 8
13 13 14 12 13 9 11 15 16 8 11 11 14 14 14 15 14 12 10 11 14 19 19 18 15 19 16 16 15 14 14 13 14 20 13 18 12 22 23 20 25 3 11 9 8 21 9 6 7
10 14 15 18 12 7 18 13 11 7 9 11 13 15 14 13 12 11 11 14 16 16 20 19 16 15 17 17 14 7 5 2 13 3 15 4 23 16 5 14 15 3 3 3 3 6 6 5 5
10 13 15 18 26 16 19 8 10 7 16 15 12 14 14 12 14 14 12 15 15 13 12 15 14 14 15 15 9 4 4 8 5 6 16 11 7 8 7 17 19 10 7 2 9 6 5 4 4
13 13 16 18 24 16 15 13 13 11 15 10 11 15 18 15 14 14 12 11 13 13 8 10 11 14 16 14 12 13 11 6 7 9 7 15 3 9 17 16 17 16 14 9 15 26 11 4 2
20 14 17 22 22 18 13 14 15 22 17 14 11 16 17 13 11 12 12 10 11 11 10 9 8 12 13 14 15 13 10 8 12 7 6 8 5 11 13 28 26 21 15 5 3 7 8 1 10
11 14 17 18 17 15 15 10 18 21 15 19 17 9 16 15 13 11 11 9 8 6 6 6 6 9 11 13 13 13 14 10 8 6 6 6 7 9 18 4 32 28 19 6 4 6 3 7 18
8 9 15 18 14 15 15 17 12 18 15 9 17 15 6 14 14 12 12 11 10 9 7 5 4 8 10 12 13 12 11 10 9 6 6 4 6 6 11 12 7 9 14 19 5 7 2 6 24
11 9 12 17 16 17 16 24 23 17 19 19 20 15 16 14 15 15 13 13 11 10 10 9 7 5 6 8 10 9 8 8 9 6 6 6 10 11 14 2 8 22 17 17 19 17 3 7 31
16 15 19 20 20 21 22 26 26 22 17 18 21 18 14 14 11 12 11 11 11 10 9 9 9 8 7 6 8 8 7 9 8 6 6 6 8 6 6 6 7 10 15 13 22 13 24 30 12
22 10 15 17 16 23 23 25 26 23 21 18 15 15 12 8 10 8 10 10 9 9 10 8 9 9 6 6 8 8 9 9 10 9 10 15 14 19 14 4 5 14 15 15 19 11 26 25 15
20 19 18 17 20 28 32 30 26 28 24 20 18 16 23 17 11 10 9 9 10 10 10 9 9 10 8 8 8 8 10 11 9 10 13 13 13 13 9 8 2 9 15 19 19 16 18 24 20
23 23 18 26 23 24 29 33 21 25 25 25 21 21 19 21 10 8 9 10 10 10 10 10 10 9 9 8 8 9 9 8 10 10 10 9 11 13 15 12 10 8 9 19 21 16 17 16 15
Wind_Direction
97 91 87 50 335 282 152 83 146 70 86 134 121 120 119 108 123 113 134 132 124 124 124 123 116 111 113 113 111 113 109 113 112 114 114 119 124 129 122 125 139 147 162 171 202 44 50 67 79
99 100 129 163 205 95 110 130 97 104 91 98 114 100 109 106 137 97 115 127 124 123 124 122 114 113 116 113 116 115 115 115 118 119 118 120 124 126 122 121 128 137 136 136 139 88 72 65 78
103 144 126 155 137 108 89 124 124 91 101 111 104 93 105 97 96 109 117 125 123 123 123 120 116 114 116 116 116 119 121 121 125 123 125 127 121 130 128 131 130 125 111 120 111 95 100 85 85
144 140 152 135 113 115 95 116 113 127 184 142 95 60 66 179 99 123 120 124 123 123 122 122 116 119 119 122 119 125 128 131 133 128 127 128 129 134 141 138 123 128 121 114 102 109 104 105 103
172 151 111 103 175 131 118 115 120 122 120 105 129 68 67 143 86 116 121 124 124 123 122 124 120 124 124 127 131 128 125 128 126 124 123 136 140 147 145 139 137 130 114 105 116 109 106 105 112
139 149 93 34 256 148 78 107 99 98 84 71 42 54 94 80 104 118 122 122 125 124 124 124 127 128 127 130 132 131 130 129 125 125 118 142 154 156 158 146 137 122 110 105 112 89 93 121 124
130 94 80 152 282 36 65 61 78 90 97 75 72 48 71 105 112 119 123 121 123 125 126 127 128 131 131 133 135 133 137 128 129 119 135 141 165 157 162 147 137 126 126 131 137 130 152 147 139
141 84 66 38 82 70 60 54 60 70 56 61 68 78 104 116 119 121 123 124 125 126 131 131 131 133 131 134 139 137 137 135 130 132 151 150 165 164 168 146 143 137 133 140 138 144 152 130 125
108 87 73 72 103 78 71 62 55 43 58 50 49 60 75 109 116 124 127 129 132 133 136 139 136 137 134 133 138 141 140 142 142 146 151 158 154 150 160 162 149 143 137 137 128 126 126 115 133
73 55 57 36 51 75 75 72 74 52 63 46 29 54 90 106 120 131 136 139 141 141 142 144 145 143 138 137 138 142 143 143 147 150 148 157 154 156 157 150 154 154 149 143 130 127 133 129 127
34 24 14 1 360 54 48 63 68 56 53 68 83 92 108 114 128 137 142 146 148 147 145 145 149 149 144 140 138 141 143 144 145 141 149 150 150 139 138 143 148 148 141 158 152 139 137 139 140
10 43 101 322 36 40 33 26 27 69 29 42 80 102 111 120 128 138 145 147 150 153 153 153 152 153 153 146 143 145 142 141 140 147 144 150 144 144 137 152 167 162 156 159 157 150 144 143 135
7 331 285 325 0 64 33 31 33 49 20 49 77 100 115 121 132 140 145 146 148 155 157 157 157 155 156 153 148 147 148 148 142 138 142 145 143 142 144 157 173 168 160 160 157 169 150 147 136
354 344 293 346 28 52 74 23 20 23 47 60 80 101 115 123 136 136 140 144 151 151 159 159 161 159 156 160 156 149 148 151 146 139 153 151 147 147 165 169 173 169 158 156 178 183 163 170 153
326 345 356 11 29 39 35 57 121 31 70 76 91 104 120 129 137 146 141 141 142 147 151 160 162 162 162 165 165 159 154 149 150 145 143 158 156 157 162 186 183 161 153 160 176 177 175 162 154
314 338 2 355 32 18 80 134 132 104 109 111 110 125 134 145 153 147 141 139 144 142 150 154 161 164 165 167 166 165 162 160 153 154 154 135 126 161 162 181 187 171 160 165 187 178 173 156 146
325 340 345 348 34 17 68 190 125 117 138 144 143 145 152 151 161 159 152 155 149 164 154 159 163 167 167 166 166 167 167 172 170 164 156 159 173 163 51 93 77 133 140 188 180 160 166 147 131
319 331 334 346 355 75 152 205 186 111 153 173 169 164 164 163 168 157 155 167 167 167 163 168 167 170 167 164 168 169 170 175 169 167 167 166 161 170 359 317 131 119 163 192 165 178 157 116 119
309 320 320 354 16 34 181 199 208 142 160 172 182 175 172 174 167 162 159 162 169 175 176 175 174 174 171 170 172 172 176 171 170 179 169 177 164 188 273 290 272 44 171 166 151 219 152 94 83
315 317 313 322 18 45 215 188 174 118 169 188 185 184 177 171 163 155 161 167 171 177 186 185 185 182 181 180 178 178 183 246 280 168 173 188 200 180 157 308 307 6 140 148 76 134 23 39 88
301 306 315 322 299 341 309 167 172 59 215 208 183 187 178 169 169 163 155 168 168 173 178 187 192 192 191 186 181 207 291 300 216 247 284 188 248 306 298 296 295 321 332 345 323 153 141 120 100
282 306 313 322 300 333 325 0 16 195 226 182 177 178 181 168 162 165 158 154 168 172 169 183 187 190 190 195 196 196 199 219 232 223 228 260 252 304 298 296 294 306 315 332 318 277 175 338 57
273 299 308 306 299 314 337 344 342 286 255 230 162 164 169 156 148 150 154 151 150 158 164 167 184 187 186 188 195 203 223 228 293 279 235 197 194 294 315 275 276 290 309 332 339 164 168 134 310
274 291 306 313 308 311 320 358 269 333 273 351 335 104 160 144 146 140 141 137 140 138 135 145 174 191 189 187 191 201 208 231 231 259 237 240 240 289 312 224 263 275 297 319 318 188 297 305 284
245 264 288 294 304 303 311 290 203 241 246 128 251 259 300 153 160 149 145 147 143 141 132 115 134 171 177 185 188 193 203 202 206 229 216 243 237 240 302 188 240 238 302 305 310 315 253 292 271
239 239 278 291 292 295 299 252 232 211 251 239 242 200 210 174 163 156 152 146 137 130 132 127 117 136 155 165 177 181 186 189 187 189 197 202 189 191 189 225 180 201 294 311 306 304 296 173 242
255 252 272 284 285 285 279 253 244 237 242 252 270 210 191 179 142 147 136 131 122 116 119 121 121 122 130 143 150 156 159 169 170 163 164 174 170 162 162 314 306 306 304 312 298 313 279 245 273
254 246 270 279 285 276 274 265 255 248 256 248 219 208 182 74 25 33 124 117 105 102 105 100 110 117 102 111 132 137 145 150 154 149 154 161 157 180 177 150 308 302 302 309 304 316 268 261 265
246 254 266 280 277 265 252 259 281 234 253 253 236 215 281 342 31 26 100 98 94 89 90 91 86 104 98 108 115 119 133 143 135 141 146 146 155 163 151 153 46 313 307 307 307 304 280 265 261
253 252 255 263 271 274 268 262 292 266 279 268 243 232 318 319 40 69 83 93 82 82 84 78 77 91 94 85 103 122 122 123 129 127 125 120 138 147 159 141 131 128 343 307 296 302 286 274 259